SCP
0 0 0 0 0 0 0 0 0 0 0 0 0 0 0 0 0 0 0 0 0 0 0 0 0 0 0 0 0 0 0 0 0 0 0 0 0 0 0 0 0 0 0
-0 -0 -0 -0 -0 -0 0 0 0 0 0 0 0 0 0 0 0 0 0 0 0 0 0 0 0 0 0 0 0 0 0 0 0 0 0 0 0 0 0 0 0 0 0
0 -0 -0 -0 -0 -0 -0 0 0 0 0 0 0 0 0 0 0 0 0 0 0 0 0 0 0 0 0 0 0 0 0 0 0 0 0 0 0 0 0 0 0 0 0
-0 0 0 0 0 0 0 0 0 0 0 0 0 0 0 0 0 0 0 0 0 0 0 0 0 0 0 0 0 0 0 0 0 0 0 0 0 0 0 0 0 0 0
0 0 0 0 0 0 0 0 0 0 0 0 0 0 0 0 0 0 0 0 0 0 0 0 0 0 0 0 0 0 0 0 0 0 0 0 0 0 0 0 0 0 0
0 0 0 0 0 0 0 0 0 0 0 0 0 0 0 0 0 0 0 0 0 0 0 0 0 0 0 0 0 0 0 0 0 0 0 0 0 0 0 0 0 0 0
0 0 0 0 0 0 0 0 0 0 0 0 0 0 0 0 0 0 0 0 0 0 0 0 0 0 0 0 0 0 0 0 0 0 0 0 0 0 0 0 0 0 0
0 0 0 0 0 0 0 0 0 0 0 0 0 0 0 0 0 0 0 0 0 0 0 0 0 0 0 0 0 0 0 0 0 0 0 0 0 0 0 0 0 0 0
0 0 0 0 0 0 0 0 0 0 0 0 0 0 0 0 0 0 0 0 0 0 0 0 0 0 0 0 0 0 0 0 0 0 0 0 0 0 0 0 0 0 0
0 0 0 0 0 0 0 0 0 0 0 0 0 0 0 0 0 0 0 0 0 0 0 0 0 0 0 0 0 0 0 0 0 0 0 0 0 0 0 0 0 0 0
0 0 0 0 0 0 0 0 0 0 0 0 0 0 0 0 0 0 0 0 0 0 0 0 0 0 0 0 0 0 0 0 0 0 0 0 0 0 0 0 0 0 0
0 0 0 0 0 0 0 0 0 0 0 0 0 0 0 0 0 0 0 0 0 0 0 0 0 0 0 0 0 0 0 0 0 0 0 0 0 0 0 0 0 0 0
0 0 0 0 0 0 0 0 0 -0 -0 0 0 0 0 0 0 0 0 0 0 0 0 0 0 0 0 0 0 0 0 0 0 0 0 0 0 0 0 0 0 0 0
0 0 0 0 0 0 0 0 0 0 -0 -0 -0 0 0 0 0 0 0 0 0 0 0 0 0 0 0 0 0 0 0 0 0 0 0 0 0 0 0 0 0 0 0
0 0 0 0 0 0 0 0 0 0 0 -0 -0 -0 -0 0 0 0 0 0 0 0 0 0 0 0 0 0 0 0 0 0 0 0 0 0 0 0 0 0 0 0 0
0 0 0 0 0 0 0 0 0 0 0 -0 -0 -0 -0 -0 0 0 0 0 0 0 0 0 0 0 0 0 0 0 0 0 0 0 0 0 0 0 0 0 0 0 0
0 0 0 0 0 0 0 0 0 0 0 0 -0 -0 -0 0 0 0 0 0 0 0 0 0 0 0 0 0 0 0 0 0 0 0 0 0 0 0 0 0 0 0 0
0 0 0 0 0 0 0 0 0 0 0 0 -0 -0 -0 -0 0 0 0 0 0 0 0 0 0 0 0 0 0 0 0 0 0 0 0 0 0 0 0 0 0 0 0
0 0 0 0 0 0 0 0 0 0 0 0 -0 -0 -0 -0 0 0 0 0 0 0 0 0 0 0 0 0 0 0 0 0 0 0 0 0 0 0 0 0 0 0 0
0 0 0 0 0 0 0 0 0 0 0 0 -0 -0 -0 -0 -0 -0 0 0 0 0 0 0 0 0 0 0 0 0 0 0 0 0 0 0 0 0 0 0 0 0 0
0 0 0 0 0 0 0 0 0 0 0 0 -0 -0 -0 -0 -0 -0 0 0 0 0 0 0 0 0 0 0 0 0 0 0 0 0 0 0 0 0 0 0 0 0 0
0 0 0 0 0 0 0 0 0 0 0 0 0 -0 -0 -0 -0 -0 0 0 0 0 0 0 0 0 0 0 0 0 0 0 0 0 0 0 0 0 0 0 0 0 0
0 0 0 0 0 0 0 0 0 0 0 0 0 0 -0 -0 -0 -0 -0 0 0 0 0 0 0 0 0 0 0 0 0 0 0 0 0 0 0 0 0 0 0 0 0
0 0 0 0 0 0 0 0 0 0 0 0 0 0 0 -0 -0 -0 -0 0 0 0 0 0 0 0 0 0 0 0 0 0 0 0 0 0 0 0 0 0 0 0 0
0 0 0 0 0 0 0 0 0 0 0 0 0 0 0 0 -0 -0 -0 0 0 0 0 0 0 0 0 0 0 0 0 0 0 0 0 0 0 0 0 0 0 0 0
-0 -0 0 0 0 0 0 0 0 0 0 0 0 0 0 -0 -0 -0 -0 0 0 0 0 0 0 0 0 0 0 0 0 0 0 0 0 0 0 0 0 0 0 0 0
Wind_Speed_500mb
25 28 30 32 34 32 28 22 17 21 28 32 37 36 34 38 40 39 44 40 38 33 29 34 33 33 33 31 31 34 39 42 39 30 32 33 28 24 19 13 8 4 2
24 24 27 29 30 30 30 29 26 21 23 29 34 41 40 39 45 48 45 44 43 35 28 35 36 36 33 31 31 32 35 39 44 38 34 38 35 29 24 18 12 7 3
25 25 24 25 26 28 28 29 29 29 26 26 32 37 41 40 44 47 47 45 41 44 34 34 37 38 33 31 31 31 32 33 39 40 35 42 38 34 29 24 17 11 5
23 25 28 28 29 29 29 30 32 31 30 28 30 36 40 42 46 45 47 51 45 44 39 35 40 38 31 30 29 30 31 31 33 39 39 41 38 35 29 24 21 15 10
24 26 28 29 29 29 30 31 32 33 32 31 30 32 39 45 46 46 45 47 50 45 43 38 37 37 30 31 29 28 30 31 31 37 38 40 38 36 30 24 23 20 14
31 27 28 30 31 30 30 31 33 33 32 32 32 31 34 42 44 47 46 45 47 49 45 40 38 38 32 33 31 32 29 29 32 36 36 36 32 30 27 22 23 21 16
41 32 30 31 31 30 29 29 31 33 34 32 32 33 32 37 43 46 47 46 46 47 50 47 50 35 33 32 33 34 34 34 34 32 31 31 27 24 22 21 21 19 15
52 41 33 33 31 30 28 28 29 32 34 35 33 31 34 33 42 45 48 49 48 49 48 44 44 34 34 32 33 34 34 35 34 36 34 30 26 24 22 19 17 15 15
61 47 34 34 36 36 35 34 34 34 35 37 36 35 33 33 38 44 49 50 50 49 48 46 45 39 30 36 37 36 38 39 38 37 35 31 27 23 21 19 18 17 15
55 47 37 39 41 41 42 42 40 40 38 38 38 38 37 33 36 42 46 49 50 51 49 50 50 43 39 44 39 40 42 42 40 40 37 33 28 25 22 21 20 18 12
50 49 46 48 43 43 47 48 49 46 43 41 40 37 37 38 33 39 42 49 49 51 53 54 54 50 47 51 41 41 39 38 40 39 36 33 31 27 23 21 20 16 15
49 59 57 53 50 47 51 53 53 53 49 45 45 42 38 38 35 36 37 44 48 51 52 53 55 53 58 56 48 42 43 41 42 41 40 37 34 30 26 23 20 16 14
54 66 63 60 58 56 55 55 56 56 55 50 48 48 46 43 41 32 38 41 47 51 51 52 51 51 50 52 50 49 53 50 46 46 43 40 36 32 28 24 21 18 15
54 56 65 69 66 62 61 58 59 59 58 55 51 50 51 49 46 38 30 35 44 52 52 52 52 51 53 56 56 53 58 54 49 47 46 44 41 36 31 26 22 20 17
61 59 59 65 71 69 69 68 66 64 60 58 56 53 53 54 45 49 29 30 37 51 56 55 57 60 61 66 64 64 65 60 56 51 51 49 44 39 34 29 26 23 21
69 68 63 62 67 73 75 75 74 71 65 65 62 57 55 56 51 46 45 31 33 38 58 69 68 68 72 77 74 72 70 65 63 57 54 51 46 42 37 33 29 27 24
68 72 74 70 70 72 76 79 81 78 74 72 69 64 60 57 56 52 50 37 40 40 60 71 76 76 78 80 77 77 76 72 65 61 59 56 51 46 41 37 33 30 29
66 70 73 79 80 79 79 81 82 84 85 84 78 74 66 59 56 54 54 44 53 55 65 74 77 77 82 82 79 79 80 76 72 68 64 59 56 50 46 41 36 32 31
69 72 73 74 79 84 84 86 88 89 91 92 87 83 72 64 57 56 56 61 65 71 65 76 80 75 80 82 81 83 82 77 75 71 68 64 59 54 49 43 38 34 32
72 72 72 76 77 78 81 87 91 93 94 96 93 90 76 71 66 61 60 67 72 76 75 69 82 81 76 83 87 88 81 79 80 75 71 67 62 57 52 46 41 36 34
70 71 71 72 77 79 81 83 85 87 92 96 99 92 79 75 73 66 63 65 73 79 80 73 74 81 79 81 90 89 81 79 81 78 74 71 66 61 54 48 42 38 35
62 65 67 71 70 73 77 77 79 81 83 87 90 87 76 75 77 73 68 65 68 76 79 75 75 76 80 83 90 89 83 83 85 83 77 73 68 64 58 54 47 42 39
54 54 57 60 62 64 67 70 74 76 77 77 78 76 71 76 75 72 69 66 69 70 68 73 74 76 78 81 88 86 83 83 83 82 80 78 74 70 65 56 48 45 40
45 48 47 48 50 52 56 59 63 66 67 69 70 72 72 73 69 57 56 63 70 66 66 67 74 77 79 81 82 78 77 76 78 82 81 79 76 72 67 60 52 47 44
32 35 38 40 41 43 44 46 50 53 57 61 65 69 71 71 69 67 61 60 65 66 65 65 74 77 76 80 82 79 77 77 79 80 78 76 74 71 71 59 57 54 49
19 22 26 29 33 36 40 44 48 50 54 56 59 61 63 62 63 62 67 64 64 63 64 67 74 73 72 72 74 71 75 75 75 75 77 77 74 75 71 57 59 57 52
Wind_Direction_500mb
358 358 356 353 353 353 352 345 319 284 263 252 247 238 228 235 238 238 237 241 242 250 268 276 277 276 273 264 252 243 236 231 233 239 231 215 209 198 197 198 196 185 132
349 350 347 346 343 340 338 335 329 314 283 265 253 248 241 241 241 239 243 241 246 252 267 276 278 275 271 261 249 240 235 230 230 235 234 213 204 197 195 194 191 181 138
329 335 336 334 334 333 332 329 324 319 308 280 263 252 249 246 250 245 246 237 237 248 249 267 275 273 268 259 245 235 231 229 226 230 235 210 203 198 197 198 196 189 175
312 318 322 325 328 330 332 329 324 318 313 300 274 260 255 250 250 249 247 241 232 248 253 250 267 266 263 254 241 232 227 226 224 222 222 210 202 199 198 201 204 203 203
293 305 312 317 321 324 325 326 326 320 315 309 294 267 254 253 253 254 250 247 238 235 250 252 260 263 255 246 233 228 226 224 220 213 205 201 201 203 205 206 208 210 212
271 287 299 305 312 316 320 321 322 324 322 313 306 287 261 255 249 251 252 249 241 237 242 247 257 259 252 245 230 219 219 222 219 207 201 200 203 203 206 212 214 214 221
259 269 288 297 304 311 319 321 320 320 323 321 312 303 282 257 251 250 250 247 239 233 233 232 241 241 249 242 231 222 218 213 206 208 204 198 199 202 206 210 214 214 218
252 254 271 287 299 303 313 324 330 328 325 323 321 311 300 277 253 249 251 247 237 231 228 233 241 239 240 243 234 227 219 213 206 199 199 196 195 197 200 205 211 210 204
245 245 256 274 290 296 299 305 313 320 327 326 324 320 310 295 266 248 246 247 240 231 225 229 232 231 236 241 234 226 217 212 203 199 199 195 193 194 197 203 203 201 205
248 244 250 263 281 285 291 298 304 310 315 322 325 321 318 306 289 256 247 244 241 233 224 223 225 223 230 238 233 226 217 213 207 202 201 198 196 194 197 200 201 205 217
252 245 247 255 272 279 284 289 296 300 304 309 315 321 318 316 298 280 246 247 240 236 227 222 223 218 228 234 226 225 219 218 208 205 202 196 195 196 195 198 199 207 206
249 243 248 252 260 270 278 282 287 292 295 299 304 311 322 316 310 286 253 247 241 237 232 225 225 225 226 229 222 217 212 211 211 207 202 198 196 195 194 194 194 194 194
254 249 249 251 255 259 265 271 279 285 290 293 296 302 309 315 311 303 279 241 243 238 231 225 224 228 225 230 226 216 213 213 210 207 204 199 196 194 192 192 193 194 193
262 256 251 246 248 252 256 260 267 276 285 291 292 294 298 302 310 309 288 253 239 240 231 225 221 221 224 226 226 215 217 216 213 208 204 200 197 193 191 191 192 192 187
269 263 258 251 244 244 248 253 259 267 277 286 289 290 291 293 302 301 291 268 248 241 237 229 221 215 217 216 220 218 217 212 209 206 204 202 198 195 192 192 190 191 185
265 265 263 258 250 245 247 252 255 261 270 278 285 286 287 287 288 287 287 254 253 244 238 237 227 219 217 216 215 217 217 212 208 205 202 203 202 199 195 192 191 191 188
266 262 260 257 255 251 250 252 257 260 265 270 277 283 282 283 280 282 278 249 245 245 240 239 234 224 220 220 216 218 216 213 208 205 203 202 200 199 196 194 194 193 187
265 263 260 257 255 254 253 254 257 261 265 267 272 278 277 277 276 274 272 248 243 241 238 239 238 231 225 221 218 220 218 214 208 205 203 202 201 199 198 195 195 193 190
266 262 261 260 257 255 255 255 256 258 262 267 272 274 273 274 274 269 262 245 240 244 240 237 239 236 230 225 220 222 220 215 210 205 203 202 200 200 198 197 196 192 192
269 264 261 261 261 259 256 255 255 257 260 263 266 269 271 276 273 267 259 247 239 241 244 240 239 237 233 226 223 223 220 214 210 207 205 203 201 200 199 198 194 195 192
272 268 263 260 260 260 259 256 256 255 256 259 262 263 267 270 270 267 263 251 242 240 240 240 240 239 234 226 224 224 219 214 210 208 205 203 201 199 197 197 192 192 196
269 266 264 262 261 259 257 256 254 255 255 257 259 260 262 263 265 264 259 249 246 245 242 239 239 240 234 227 223 222 218 213 210 207 205 202 200 198 196 195 191 195 199
275 269 265 262 260 259 256 253 251 252 254 256 258 259 259 257 259 259 257 246 245 244 243 240 236 236 233 226 223 221 217 212 211 208 204 201 199 197 196 194 196 199 202
269 270 268 263 261 259 256 254 252 251 252 253 254 255 255 255 255 252 250 243 244 243 243 238 233 232 228 221 215 215 215 213 212 209 206 202 200 197 195 191 196 202 208
276 271 267 267 265 261 259 255 253 252 252 251 251 251 252 253 252 244 229 244 240 239 240 235 230 229 225 214 206 210 209 207 208 208 204 203 202 198 195 203 197 204 203
291 279 270 265 262 258 255 253 252 251 250 250 250 250 250 249 245 238 231 228 237 237 234 231 228 227 220 212 206 208 205 204 203 203 202 199 197 197 198 212 203 205 203
Wind_Speed_850mb
25 28 30 32 34 32 28 22 17 21 28 32 37 36 34 38 40 39 44 40 38 33 29 34 33 33 33 31 31 34 39 42 39 30 32 33 28 24 19 13 8 4 2
24 24 27 29 30 30 30 29 26 21 23 29 34 41 40 39 45 48 45 44 43 35 28 35 36 36 33 31 31 32 35 39 44 38 34 38 35 29 24 18 12 7 3
25 25 24 25 26 28 28 29 29 29 26 26 32 37 41 40 44 47 47 45 41 44 34 34 37 38 33 31 31 31 32 33 39 40 35 42 38 34 29 24 17 11 5
23 25 28 28 29 29 29 30 32 31 30 28 30 36 40 42 46 45 47 51 45 44 39 35 40 38 31 30 29 30 31 31 33 39 39 41 38 35 29 24 21 15 10
24 26 28 29 29 29 30 31 32 33 32 31 30 32 39 45 46 46 45 47 50 45 43 38 37 37 30 31 29 28 30 31 31 37 38 40 38 36 30 24 23 20 14
31 27 28 30 31 30 30 31 33 33 32 32 32 31 34 42 44 47 46 45 47 49 45 40 38 38 32 33 31 32 29 29 32 36 36 36 32 30 27 22 23 21 16
41 32 30 31 31 30 29 29 31 33 34 32 32 33 32 37 43 46 47 46 46 47 50 47 50 35 33 32 33 34 34 34 34 32 31 31 27 24 22 21 21 19 15
52 41 33 33 31 30 28 28 29 32 34 35 33 31 34 33 42 45 48 49 48 49 48 44 44 34 34 32 33 34 34 35 34 36 34 30 26 24 22 19 17 15 15
61 47 34 34 36 36 35 34 34 34 35 37 36 35 33 33 38 44 49 50 50 49 48 46 45 39 30 36 37 36 38 39 38 37 35 31 27 23 21 19 18 17 15
55 47 37 39 41 41 42 42 40 40 38 38 38 38 37 33 36 42 46 49 50 51 49 50 50 43 39 44 39 40 42 42 40 40 37 33 28 25 22 21 20 18 12
50 49 46 48 43 43 47 48 49 46 43 41 40 37 37 38 33 39 42 49 49 51 53 54 54 50 47 51 41 41 39 38 40 39 36 33 31 27 23 21 20 16 15
49 59 57 53 50 47 51 53 53 53 49 45 45 42 38 38 35 36 37 44 48 51 52 53 55 53 58 56 48 42 43 41 42 41 40 37 34 30 26 23 20 16 14
54 66 63 60 58 56 55 55 56 56 55 50 48 48 46 43 41 32 38 41 47 51 51 52 51 51 50 52 50 49 53 50 46 46 43 40 36 32 28 24 21 18 15
54 56 65 69 66 62 61 58 59 59 58 55 51 50 51 49 46 38 30 35 44 52 52 52 52 51 53 56 56 53 58 54 49 47 46 44 41 36 31 26 22 20 17
61 59 59 65 71 69 69 68 66 64 60 58 56 53 53 54 45 49 29 30 37 51 56 55 57 60 61 66 64 64 65 60 56 51 51 49 44 39 34 29 26 23 21
69 68 63 62 67 73 75 75 74 71 65 65 62 57 55 56 51 46 45 31 33 38 58 69 68 68 72 77 74 72 70 65 63 57 54 51 46 42 37 33 29 27 24
68 72 74 70 70 72 76 79 81 78 74 72 69 64 60 57 56 52 50 37 40 40 60 71 76 76 78 80 77 77 76 72 65 61 59 56 51 46 41 37 33 30 29
66 70 73 79 80 79 79 81 82 84 85 84 78 74 66 59 56 54 54 44 53 55 65 74 77 77 82 82 79 79 80 76 72 68 64 59 56 50 46 41 36 32 31
69 72 73 74 79 84 84 86 88 89 91 92 87 83 72 64 57 56 56 61 65 71 65 76 80 75 80 82 81 83 82 77 75 71 68 64 59 54 49 43 38 34 32
72 72 72 76 77 78 81 87 91 93 94 96 93 90 76 71 66 61 60 67 72 76 75 69 82 81 76 83 87 88 81 79 80 75 71 67 62 57 52 46 41 36 34
70 71 71 72 77 79 81 83 85 87 92 96 99 92 79 75 73 66 63 65 73 79 80 73 74 81 79 81 90 89 81 79 81 78 74 71 66 61 54 48 42 38 35
62 65 67 71 70 73 77 77 79 81 83 87 90 87 76 75 77 73 68 65 68 76 79 75 75 76 80 83 90 89 83 83 85 83 77 73 68 64 58 54 47 42 39
54 54 57 60 62 64 67 70 74 76 77 77 78 76 71 76 75 72 69 66 69 70 68 73 74 76 78 81 88 86 83 83 83 82 80 78 74 70 65 56 48 45 40
45 48 47 48 50 52 56 59 63 66 67 69 70 72 72 73 69 57 56 63 70 66 66 67 74 77 79 81 82 78 77 76 78 82 81 79 76 72 67 60 52 47 44
32 35 38 40 41 43 44 46 50 53 57 61 65 69 71 71 69 67 61 60 65 66 65 65 74 77 76 80 82 79 77 77 79 80 78 76 74 71 71 59 57 54 49
19 22 26 29 33 36 40 44 48 50 54 56 59 61 63 62 63 62 67 64 64 63 64 67 74 73 72 72 74 71 75 75 75 75 77 77 74 75 71 57 59 57 52
Wind_Direction_850mb
358 358 356 353 353 353 352 345 319 284 263 252 247 238 228 235 238 238 237 241 242 250 268 276 277 276 273 264 252 243 236 231 233 239 231 215 209 198 197 198 196 185 132
349 350 347 346 343 340 338 335 329 314 283 265 253 248 241 241 241 239 243 241 246 252 267 276 278 275 271 261 249 240 235 230 230 235 234 213 204 197 195 194 191 181 138
329 335 336 334 334 333 332 329 324 319 308 280 263 252 249 246 250 245 246 237 237 248 249 267 275 273 268 259 245 235 231 229 226 230 235 210 203 198 197 198 196 189 175
312 318 322 325 328 330 332 329 324 318 313 300 274 260 255 250 250 249 247 241 232 248 253 250 267 266 263 254 241 232 227 226 224 222 222 210 202 199 198 201 204 203 203
293 305 312 317 321 324 325 326 326 320 315 309 294 267 254 253 253 254 250 247 238 235 250 252 260 263 255 246 233 228 226 224 220 213 205 201 201 203 205 206 208 210 212
271 287 299 305 312 316 320 321 322 324 322 313 306 287 261 255 249 251 252 249 241 237 242 247 257 259 252 245 230 219 219 222 219 207 201 200 203 203 206 212 214 214 221
259 269 288 297 304 311 319 321 320 320 323 321 312 303 282 257 251 250 250 247 239 233 233 232 241 241 249 242 231 222 218 213 206 208 204 198 199 202 206 210 214 214 218
252 254 271 287 299 303 313 324 330 328 325 323 321 311 300 277 253 249 251 247 237 231 228 233 241 239 240 243 234 227 219 213 206 199 199 196 195 197 200 205 211 210 204
245 245 256 274 290 296 299 305 313 320 327 326 324 320 310 295 266 248 246 247 240 231 225 229 232 231 236 241 234 226 217 212 203 199 199 195 193 194 197 203 203 201 205
248 244 250 263 281 285 291 298 304 310 315 322 325 321 318 306 289 256 247 244 241 233 224 223 225 223 230 238 233 226 217 213 207 202 201 198 196 194 197 200 201 205 217
252 245 247 255 272 279 284 289 296 300 304 309 315 321 318 316 298 280 246 247 240 236 227 222 223 218 228 234 226 225 219 218 208 205 202 196 195 196 195 198 199 207 206
249 243 248 252 260 270 278 282 287 292 295 299 304 311 322 316 310 286 253 247 241 237 232 225 225 225 226 229 222 217 212 211 211 207 202 198 196 195 194 194 194 194 194
254 249 249 251 255 259 265 271 279 285 290 293 296 302 309 315 311 303 279 241 243 238 231 225 224 228 225 230 226 216 213 213 210 207 204 199 196 194 192 192 193 194 193
262 256 251 246 248 252 256 260 267 276 285 291 292 294 298 302 310 309 288 253 239 240 231 225 221 221 224 226 226 215 217 216 213 208 204 200 197 193 191 191 192 192 187
269 263 258 251 244 244 248 253 259 267 277 286 289 290 291 293 302 301 291 268 248 241 237 229 221 215 217 216 220 218 217 212 209 206 204 202 198 195 192 192 190 191 185
265 265 263 258 250 245 247 252 255 261 270 278 285 286 287 287 288 287 287 254 253 244 238 237 227 219 217 216 215 217 217 212 208 205 202 203 202 199 195 192 191 191 188
266 262 260 257 255 251 250 252 257 260 265 270 277 283 282 283 280 282 278 249 245 245 240 239 234 224 220 220 216 218 216 213 208 205 203 202 200 199 196 194 194 193 187
265 263 260 257 255 254 253 254 257 261 265 267 272 278 277 277 276 274 272 248 243 241 238 239 238 231 225 221 218 220 218 214 208 205 203 202 201 199 198 195 195 193 190
266 262 261 260 257 255 255 255 256 258 262 267 272 274 273 274 274 269 262 245 240 244 240 237 239 236 230 225 220 222 220 215 210 205 203 202 200 200 198 197 196 192 192
269 264 261 261 261 259 256 255 255 257 260 263 266 269 271 276 273 267 259 247 239 241 244 240 239 237 233 226 223 223 220 214 210 207 205 203 201 200 199 198 194 195 192
272 268 263 260 260 260 259 256 256 255 256 259 262 263 267 270 270 267 263 251 242 240 240 240 240 239 234 226 224 224 219 214 210 208 205 203 201 199 197 197 192 192 196
269 266 264 262 261 259 257 256 254 255 255 257 259 260 262 263 265 264 259 249 246 245 242 239 239 240 234 227 223 222 218 213 210 207 205 202 200 198 196 195 191 195 199
275 269 265 262 260 259 256 253 251 252 254 256 258 259 259 257 259 259 257 246 245 244 243 240 236 236 233 226 223 221 217 212 211 208 204 201 199 197 196 194 196 199 202
269 270 268 263 261 259 256 254 252 251 252 253 254 255 255 255 255 252 250 243 244 243 243 238 233 232 228 221 215 215 215 213 212 209 206 202 200 197 195 191 196 202 208
276 271 267 267 265 261 259 255 253 252 252 251 251 251 252 253 252 244 229 244 240 239 240 235 230 229 225 214 206 210 209 207 208 208 204 203 202 198 195 203 197 204 203
291 279 270 265 262 258 255 253 252 251 250 250 250 250 250 249 245 238 231 228 237 237 234 231 228 227 220 212 206 208 205 204 203 203 202 199 197 197 198 212 203 205 203